[Iaude] MPEC T04: 2023 TA [a=0.91,e=0.10,i=4.4,H=27.9]
    mpec at marsden.cfa.harvard.edu 
    mpec at marsden.cfa.harvard.edu
       
    Mon Oct  2 10:56:19 EDT 2023
    
    
  
M.P.E.C. 2023-T04                               Issued 2023 October 2, 14:55 UT
     The Minor Planet Electronic Circulars contain information on unusual
         minor planets, routine data on comets and natural satellites,
         and occasional editorial announcements.  They are published
    on behalf of Division F of the International Astronomical Union by the
          Minor Planet Center, Smithsonian Astrophysical Observatory,
                          Cambridge, MA 02138, U.S.A.
			  
             Prepared using the Tamkin Foundation Computer Network
                              MPC at CFA.HARVARD.EDU
            URL https://www.minorplanetcenter.net/    ISSN 1523-6714
                                    2023 TA                                     
Observations:
     K23T00A* C2023 10 01.80592 22 56 54.44 +28 58 59.1          17.2 GoET004K88
     K23T00A  C2023 10 01.80716 22 56 47.71 +28 59 11.9          17.2 GoET004K88
     K23T00A  C2023 10 01.80840 22 56 40.91 +28 59 25.7          17.3 GoET004K88
     K23T00A KC2023 10 01.81933922 55 41.27 +29 01 17.1          17.1 RoET004K88
     K23T00A KC2023 10 01.82013022 55 36.94 +29 01 25.0                oET004K88
     K23T00A KC2023 10 01.82092122 55 32.65 +29 01 33.1          17.3 RoET004K88
     K23T00A KC2023 10 01.82171022 55 28.37 +29 01 40.8          16.9 RoET004K88
     K23T00A KC2023 10 01.82249922 55 24.10 +29 01 48.2          17.2 RoET004K88
     K23T00A KC2023 10 01.82329022 55 19.81 +29 01 56.4          17.2 RoET004K88
     K23T00A KC2023 10 01.84170 22 53 59.11 +29 06 31.5          17.3 GVET004104
     K23T00A KC2023 10 01.84410 22 53 46.03 +29 06 55.0          18.6 GVET004104
     K23T00A KC2023 10 01.84498122 53 31.96 +29 03 22.5          16.9 GVET004G34
     K23T00A KC2023 10 01.84607222 53 26.16 +29 03 32.5          17.2 GVET004G34
     K23T00A KC2023 10 01.84650 22 53 33.04 +29 07 18.3          18.1 GVET004104
     K23T00A KB2023 10 01.84704322 53 27.535+29 04 05.56         16.5 GXET004K74
     K23T00A KC2023 10 01.84716422 53 20.35 +29 03 42.4          17.2 GVET004G34
     K23T00A KB2023 10 01.84759322 53 24.638+29 04 10.92         16.8 GXET004K74
     K23T00A KC2023 10 01.84825422 53 14.53 +29 03 52.7          17.1 GVET004G34
     K23T00A KB2023 10 01.84853622 53 19.618+29 04 19.63         17.0 GXET004K74
     K23T00A KC2023 10 01.84934522 53 08.73 +29 04 02.3          16.9 GVET004G34
     K23T00A KB2023 10 01.84995022 53 12.072+29 04 32.74         17.0 GXET004K74
     K23T00A KC2023 10 01.85043322 53 02.90 +29 04 12.2          16.9 GVET004G34
     K23T00A KB2023 10 01.85136622 53 04.519+29 04 46.02         16.9 GXET004K74
     K23T00A KC2023 10 01.85290822 52 52.34 +29 07 22.3          17.0 GXET004595
     K23T00A KB2023 10 01.85314722 52 55.015+29 05 02.40         17.2 GXET004K74
     K23T00A KB2023 10 01.85529422 52 43.596+29 05 21.84         17.1 GXET004K74
     K23T00A KB2023 10 01.85744122 52 32.179+29 05 41.28         17.2 GXET004K74
     K23T00A KC2023 10 01.85746622 52 27.82 +29 08 02.5          17.2 GXET004595
     K23T00A KC2023 10 01.85850722 52 28.785+29 09 07.00         17.3 GVET004K63
     K23T00A KB2023 10 01.85958622 52 20.789+29 06 00.36         16.7 GXET004K74
     K23T00A KC2023 10 01.86012722 52 20.087+29 09 21.55         17.2 GVET004K63
     K23T00A KB2023 10 01.86173122 52 09.379+29 06 19.30         17.1 GXET004K74
     K23T00A KC2023 10 01.86203222 52 03.30 +29 08 41.7          17.0 GXET004595
     K23T00A KC2023 10 01.86355822 52 01.669+29 09 51.65         17.2 GVET004K63
     K23T00A KB2023 10 01.86387822 51 57.998+29 06 37.98         17.0 GXET004K74
     K23T00A KC2023 10 01.86490922 51 54.326+29 10 03.72         17.5 GVET004K63
     K23T00A KC2023 10 01.86616222 51 47.646+29 10 14.23         17.8 GVET004K63
     K23T00A KC2023 10 01.86849422 51 28.30 +29 09 58.3          17.5 GVET004L01
     K23T00A KC2023 10 01.86927822 51 24.14 +29 10 04.6          17.6 GVET004L01
     K23T00A KC2023 10 01.87006022 51 19.92 +29 10 10.9          17.5 GVET004L01
     K23T00A KC2023 10 01.87084222 51 15.72 +29 10 17.1          17.7 GVET004L01
     K23T00A KC2023 10 01.87162322 51 11.56 +29 10 23.5          17.7 GVET004L01
     K23T00A KC2023 10 01.87264422 51 28.769+29 06 26.32         17.7 GVET004Z80
     K23T00A KB2023 10 01.87305722 51 13.535+29 07 21.14         16.9 GXET004B72
     K23T00A KB2023 10 01.87473722 51 04.689+29 07 35.25         17.2 GXET004B72
     K23T00A KB2023 10 01.87641822 50 55.854+29 07 49.26         17.1 GXET004B72
     K23T00A KB2023 10 01.87809622 50 47.024+29 08 03.33         17.5 GXET004B72
     K23T00A KB2023 10 01.88016022 50 36.193+29 08 19.78         17.3 GXET004B72
     K23T00A KB2023 10 01.88073422 50 33.158+29 08 24.97         17.3 GXET004B72
     K23T00A KB2023 10 01.88130622 50 30.194+29 08 29.32         17.0 GXET004B72
     K23T00A KC2023 10 01.88164922 50 41.674+29 07 46.06         18.0 GVET004Z80
     K23T00A KB2023 10 01.88364622 50 17.911+29 08 48.20         17.0 GXET004B72
     K23T00A KB2023 10 01.88421522 50 14.928+29 08 52.75         17.8 GXET004B72
     K23T00A KB2023 10 01.88478722 50 11.929+29 08 57.39         17.2 GXET004B72
     K23T00A KB2023 10 01.88706622 50 00.033+29 09 15.24         18.6 GXET004B72
     K23T00A KB2023 10 01.88766722 49 56.849+29 09 20.07         16.9 GXET004B72
     K23T00A KB2023 10 01.88826722 49 53.728+29 09 24.58         17.3 GXET004B72
     K23T00A KC2023 10 01.89059722 49 55.044+29 09 01.48         17.7 GVET004Z80
     K23T00A KB2023 10 01.89571222 49 14.882+29 10 21.80         17.1 GXET004B72
     K23T00A KB2023 10 01.89635022 49 11.566+29 10 26.43         17.2 GXET004B72
     K23T00A KB2023 10 01.89699022 49 08.208+29 10 31.18         17.9 GXET004B72
     K23T00A KC2023 10 01.89848422 48 58.15 +29 13 37.3          17.4 GVET004203
     K23T00A KC2023 10 01.90298622 48 34.47 +29 14 09.3          17.6 GVET004203
     K23T00A KC2023 10 01.90714522 48 12.66 +29 14 37.9                VET004203
     K23T00A KB2023 10 01.90822722 48 24.78 +29 15 18.2          17.3 GVET004I93
     K23T00A KB2023 10 01.91048322 48 12.93 +29 15 34.8          17.2 GVET004I93
     K23T00A KB2023 10 01.91263922 48 01.63 +29 15 50.8          17.1 GVET004I93
     K23T00A KB2023 10 01.91479122 47 50.36 +29 16 06.4          17.4 GVET004I93
     K23T00A KC2023 10 01.93054322 46 29.85 +29 18 24.5          17.1 GXET004958
     K23T00A KC2023 10 01.93455222 46 09.05 +29 18 50.9          17.1 GXET004958
     K23T00A KC2023 10 01.93849722 45 48.59 +29 19 15.8          17.1 GXET004958
     K23T00A :C2023 10 01.96062 22 44 29.13 +29 30 20.8          17.1 VqET004950
     K23T00A :C2023 10 01.96252 22 44 19.12 +29 30 32.9          17.2 VqET004950
     K23T00A :C2023 10 01.96441 22 44 09.16 +29 30 45.1          17.0 VqET004950
     K23T00A KB2023 10 02.00274522 42 57.014+29 25 43.97         18.3 GXET004W34
     K23T00A KB2023 10 02.00905022 42 26.714+29 26 46.10         17.5 GXET004W34
     K23T00A KB2023 10 02.01749922 41 45.974+29 28 07.03         17.4 GXET004W34
     K23T00A KC2023 10 02.06040922 38 24.94 +29 31 17.1          17.9 VuET004H21
     K23T00A KC2023 10 02.06169622 38 18.81 +29 31 27.5          17.7 VuET004H21
     K23T00A KC2023 10 02.06298022 38 12.68 +29 31 37.7          17.8 VuET004H21
     K23T00A KC2023 10 02.06426722 38 06.55 +29 31 47.8          17.7 VuET004H21
     K23T00A KC2023 10 02.06561622 38 00.13 +29 31 58.4          17.7 VuET004H21
     K23T00A KC2023 10 02.48821722 11 37.50 +29 57 59.3          17.8 GVET004900
     K23T00A KC2023 10 02.49582622 11 07.76 +29 58 16.3          17.7 GVET004900
     K23T00A KC2023 10 02.50343522 10 38.08 +29 58 31.3          17.6 GVET004900
Observer details:
104 San Marcello Pistoiese.  Observers P. Bacci, M. Maestripieri.  Measurer P.
    Bacci.  0.60-m f/4.0 reflector + CCD.
203 GiaGa Observatory.  Observers S. Foglia, G. Galli.  Measurer G. Galli.
    0.36-m f/5.76 Schmidt-Cassegrain + CCD.
595 Farra d'Isonzo.  Observer E. Pettarin.  0.61-m f/4.5 reflector + CCD.
900 Moriyama.  Observer Y. Ikari.  0.26-m f/7.0 reflector + CCD.
950 La Palma.  Observer M. Masek.  0.25-m f/6.8 reflector + CCD.
958 Observatoire de Dax.  Observers P. Dupouy, J. B. de Vanssay.  Measurer P.
    Dupouy.  0.43-m f/2.7 Reflector + CCD.
B72 Soerth.  Observer B. Koch.  0.36-m f/7.6 reflector + CMO.
G34 Oberfrauendorf.  Observer T. Felber.  0.35-m f/6.3 Schmidt-Cassegrain +
    CCD.
H21 Astronomical Research Observatory, Westfield.  Observer R. Holmes.
    Measurers T. Linder, R. Holmes, L. Horn.  0.76-m f/3.0 astrograph + CCD.
I93 St Pardon de Conques.  Observer F. Losse.  0.40-m f/3.7 reflector + CMO.
K63 G. Pascoli Observatory, Castelvecchio Pascoli.  Observer R. Bacci.  0.41-m
    f/3.75 0.41m f/3.2  Newton + CCD.
K74 Muensterschwarzach Observatory, Schwarzach.  Observer C. Gerhard.  0.30-m
    f/3.75 reflector + CMO.
K88 GINOP-KHK, Piszkesteto.  Observer K. Sarneczky.  0.60-m Schmidt + CCD.
L01 Visnjan Observatory, Tican.  Observer K. Korlevic.  1.0-m f/2.9 reflector
    + CCD.
W34 Squirrel Valley Observatory, Columbus.  Observer R. L. Flynn.  0.36-m
    f/1.9 Aplanatic Schmidt Cassegrain + CMO.
Z80 Northolt Branch Observatory.  Observer G. Wells.  Measurers G. Wells, J.
    Leuty.  0.25-m f/8.0 Ritchey-Chretien + CCD.
Orbital elements:
2023 TA                                                  Earth MOID = 0.0022 AU
Epoch 2023 Sept. 13.0 TT = JDT 2460200.5                Veres                   
M 141.20137              (2000.0)            P               Q                  
n   1.12915673     Peri.  195.57844     -0.92459601     +0.38083828             
a   0.9133416      Node     6.82841     -0.34073941     -0.81597754             
e   0.1042356      Incl.    4.43223     -0.17034928     -0.43490557             
mailing list